Wetbulb
44.36 44.64 44.68 44.07 43.80 45.24 43.95 44.91 41.77 43.88 43.87 46.91 48.61 50.27 51.00 51.10 50.53 51.47 52.68 54.47 56.59 58.42 59.53 59.96 59.96 59.52 59.70 58.58 58.03 57.91 56.77 56.36 55.21 55.09 54.38 53.24 51.77 51.39 50.20 50.59 47.05 43.87 43.09 42.26
41.79 44.56 44.22 42.71 44.65 44.97 45.53 45.50 45.45 45.55 44.69 49.86 51.19 51.85 50.85 49.59 50.37 51.45 52.16 53.33 54.90 56.50 57.46 57.41 57.57 57.59 56.33 55.83 55.29 55.86 54.42 52.80 52.31 51.27 49.44 48.62 47.16 46.30 43.11 42.46 42.67 42.23 42.98 42.34
37.80 42.94 42.67 38.09 42.92 44.72 45.72 47.16 46.70 43.09 47.35 50.31 49.64 49.81 50.77 50.50 51.29 50.89 50.70 51.18 51.56 52.20 52.86 54.03 55.00 55.59 54.34 53.64 53.54 52.71 51.61 50.50 49.23 48.09 45.79 44.82 43.65 42.35 41.54 43.36 42.00 42.08 42.50 44.53
39.40 37.28 32.87 43.85 47.61 48.37 46.51 47.35 48.81 48.07 49.01 49.66 49.84 50.60 49.92 51.62 51.03 49.05 48.89 48.77 49.33 50.21 50.92 51.93 52.50 52.12 52.13 51.80 50.67 49.81 48.73 47.72 47.28 46.80 45.04 44.79 44.07 44.00 42.80 42.93 42.12 42.90 43.53 43.19
38.22 36.90 41.52 42.21 43.62 44.72 44.71 45.46 49.50 48.51 49.23 49.39 48.52 48.24 46.38 47.81 50.19 48.92 48.21 48.16 48.34 49.12 49.59 49.94 49.77 50.16 49.57 49.13 48.63 47.74 46.78 46.39 46.35 46.51 45.85 45.56 44.82 44.89 45.57 45.68 44.80 44.18 42.29 39.71
37.17 35.83 34.00 43.62 48.23 49.57 48.26 42.02 50.05 49.71 48.99 48.54 47.78 44.39 48.32 46.55 46.30 45.90 46.86 47.16 47.01 47.70 48.07 48.23 48.48 49.09 48.20 47.21 46.84 45.61 46.03 46.03 46.44 46.39 45.82 44.99 44.87 42.77 40.13 40.27 40.05 40.97 42.21 42.96
39.32 38.99 42.26 47.06 47.55 48.78 40.27 44.05 50.03 50.51 50.26 49.31 47.14 49.89 49.34 46.83 45.75 46.43 46.11 45.69 46.78 47.38 46.79 47.12 47.96 47.92 46.33 45.92 44.65 45.42 45.60 44.85 43.76 42.10 40.20 41.32 42.72 42.99 42.99 42.50 41.60 41.24 40.13 41.08
40.66 38.43 36.48 47.24 45.62 44.71 50.61 50.46 51.17 51.12 51.29 50.39 50.12 47.53 46.09 45.48 44.39 44.37 44.30 44.65 45.96 45.49 45.53 46.35 46.71 45.82 43.50 41.59 42.86 43.39 41.58 40.12 41.29 40.80 39.60 40.13 40.27 40.66 40.27 40.15 39.06 38.68 39.22 38.84
43.40 43.82 50.96 49.13 51.42 51.88 53.21 52.11 50.70 51.54 51.56 51.55 46.75 45.60 45.21 44.21 44.11 44.20 44.74 45.07 45.43 44.68 44.00 44.74 45.33 44.96 42.04 41.01 41.09 40.82 39.87 39.29 39.37 39.55 39.48 39.76 39.62 39.20 39.23 38.86 37.70 36.71 35.63 35.69
43.35 48.51 48.53 50.37 51.71 51.08 51.00 51.49 51.28 51.82 51.75 49.72 47.06 45.77 44.67 44.08 43.59 43.62 44.52 44.06 44.02 42.47 40.93 40.09 41.40 41.29 40.70 40.23 40.42 39.68 38.77 38.19 38.38 36.96 37.45 37.30 37.66 36.41 35.55 34.72 33.64 32.63 32.36 32.17
45.71 49.27 47.45 49.43 50.91 51.76 50.29 49.79 49.22 51.20 51.10 49.21 47.68 45.56 44.64 43.42 42.94 43.55 43.37 42.53 42.29 40.86 39.37 38.36 38.59 38.14 38.86 38.93 39.34 37.85 36.69 35.64 34.82 34.31 33.75 34.34 33.86 33.26 32.24 32.83 29.85 29.50 30.34 30.21
44.99 51.00 50.31 52.06 52.97 52.88 50.54 48.40 49.45 49.52 48.76 49.43 47.64 45.26 44.50 43.15 43.38 42.61 41.38 41.13 40.22 38.93 37.28 36.06 35.46 35.10 35.12 35.80 36.65 35.07 32.98 32.47 31.21 32.49 32.84 32.69 32.15 32.45 27.72 27.22 26.72 26.90 26.32 26.88
48.77 48.61 49.91 48.36 48.42 52.28 49.90 49.32 49.68 48.94 49.23 47.11 46.67 44.90 43.75 42.09 41.81 39.68 40.47 39.79 37.93 36.01 34.02 32.03 30.85 29.91 31.22 32.61 32.72 31.68 30.63 30.00 30.52 30.23 30.42 29.58 29.82 29.01 28.30 29.60 26.71 25.79 25.00 24.56
47.66 46.29 46.17 45.30 46.30 46.14 47.70 47.75 45.96 47.61 46.78 45.94 44.33 43.40 42.37 40.79 39.12 38.97 38.13 37.58 35.72 33.64 30.60 28.94 28.39 29.19 30.63 31.16 30.55 29.56 28.15 25.19 29.60 30.00 29.02 28.60 27.87 27.27 27.67 25.68 24.58 25.70 25.56 23.25
46.51 45.73 44.36 45.39 44.98 44.25 44.25 43.62 42.43 41.57 41.90 41.65 42.21 40.56 39.82 37.56 37.32 37.19 35.88 33.90 32.41 30.33 28.80 28.41 28.95 28.28 29.84 29.40 28.44 27.96 27.95 27.24 27.53 27.60 26.40 24.66 25.77 25.50 25.13 24.04 23.40 23.45 24.07 23.58
42.50 43.80 42.79 42.44 40.78 39.93 40.28 40.77 40.59 38.17 39.27 38.57 38.49 38.57 38.51 38.06 35.65 34.36 32.95 30.78 27.18 26.30 28.00 25.62 25.71 27.03 28.07 27.91 27.32 27.15 24.60 21.09 22.81 25.46 24.92 23.99 23.77 23.16 22.39 21.72 21.51 21.72 21.04 20.36
40.25 38.73 39.41 37.74 38.08 39.30 39.21 40.39 39.28 38.22 38.06 38.28 37.51 36.89 34.73 33.14 30.60 27.95 25.47 24.30 24.10 24.15 24.73 24.63 24.64 26.14 25.70 25.54 25.79 25.82 25.97 23.47 19.19 23.96 22.58 21.38 21.41 20.75 20.14 19.60 19.24 19.31 19.17 18.93
43.16 42.61 42.35 41.92 39.85 37.47 37.27 38.40 38.01 36.68 36.00 34.95 31.74 30.50 29.08 27.73 24.91 23.77 23.39 22.59 21.70 21.09 21.41 22.19 22.93 22.89 22.77 22.56 22.79 22.16 21.96 21.66 21.68 20.82 21.12 19.72 17.73 18.55 18.14 17.38 17.07 17.02 17.37 17.17
41.34 40.29 40.39 39.52 38.99 37.93 36.50 34.01 32.00 31.03 30.63 30.54 29.71 27.55 26.88 26.30 24.69 23.94 23.25 21.88 20.73 19.53 19.68 20.87 20.39 20.49 19.73 18.74 20.17 20.77 19.52 19.34 19.51 19.08 17.74 14.19 17.38 16.51 16.25 15.32 15.16 15.46 15.27 14.90
35.46 34.75 34.18 33.78 33.55 32.31 30.41 30.40 30.49 29.66 29.46 28.46 27.64 27.05 25.76 24.58 24.51 23.51 23.89 23.23 23.14 21.40 21.09 19.82 19.44 19.29 18.58 17.17 16.95 18.99 18.18 18.05 16.78 17.09 15.57 15.18 15.15 13.98 14.38 12.30 12.14 13.40 13.70 13.81
30.33 30.51 29.25 28.50 28.66 29.38 29.68 29.89 29.45 28.57 29.35 29.56 27.60 25.56 23.68 23.62 23.92 23.43 21.54 19.55 19.91 21.01 20.45 19.83 20.18 19.83 19.19 18.60 18.65 18.76 17.87 17.03 16.23 15.54 14.60 13.95 13.13 13.17 12.58 12.29 11.96 12.02 12.11 12.25
28.95 28.12 28.06 28.21 28.14 28.46 29.11 29.04 28.64 27.58 26.43 25.03 24.30 23.71 22.39 21.84 22.14 21.65 23.39 22.83 21.68 20.88 21.07 20.79 19.37 15.52 16.25 13.18 17.84 17.86 16.40 15.24 15.09 14.37 14.01 12.97 12.04 11.08 10.50 10.29 9.66 10.05 10.04 10.62
28.82 28.28 27.83 27.22 26.49 25.98 26.55 26.54 26.32 25.95 25.08 24.85 24.82 25.43 24.48 23.98 23.97 22.45 20.04 21.53 22.28 19.91 20.60 19.84 14.98 13.16 10.86 17.24 16.98 15.25 14.50 13.12 12.67 12.53 12.13 11.75 10.74 9.87 8.79 8.44 8.09 7.59 8.09 8.24
28.09 27.50 27.10 27.48 27.57 26.02 23.86 24.39 24.90 24.76 24.08 23.97 23.80 24.07 23.84 22.71 22.40 22.69 22.06 20.15 18.87 19.10 19.04 16.94 15.52 9.99 10.47 16.25 14.96 13.83 12.94 13.08 12.29 12.23 11.63 7.04 10.02 8.86 8.34 7.25 6.13 6.74 6.10 5.53
27.73 27.39 26.93 25.94 24.68 24.61 24.80 24.88 24.14 23.84 23.32 22.89 22.88 22.80 22.99 23.80 24.59 21.91 21.37 19.21 17.13 17.33 18.13 11.74 9.12 8.09 14.34 14.28 13.36 12.15 12.10 12.12 12.03 10.85 10.10 9.49 8.53 7.54 7.40 7.16 5.11 4.95 3.65 3.85
23.71 22.88 23.17 23.92 24.61 24.84 25.02 24.93 23.66 24.19 24.09 22.76 22.24 22.92 22.39 21.65 20.50 20.01 18.98 17.35 16.85 13.87 16.68 16.48 15.15 13.77 13.60 13.03 11.92 11.04 10.91 11.15 10.62 9.95 8.41 7.87 7.60 6.74 5.97 4.87 3.39 3.23 3.32 3.15
20.43 21.34 21.50 20.50 21.37 21.49 21.88 21.99 21.57 20.89 21.82 22.39 20.90 21.26 20.53 20.19 18.69 18.12 16.25 17.00 16.42 15.51 15.27 14.72 14.36 12.44 11.75 11.44 10.98 10.91 10.42 10.26 8.62 7.88 6.85 7.16 6.43 5.86 4.64 3.11 2.44 1.97 1.10 0.41
MSLP
1004.77 1004.57 1004.40 1004.49 1004.42 1004.95 1005.10 1005.07 1004.67 1004.39 1003.79 1003.67 1003.53 1003.66 1003.89 1005.12 1005.72 1006.12 1006.46 1006.84 1007.26 1007.58 1008.12 1008.78 1009.51 1010.17 1010.89 1011.76 1012.35 1012.90 1013.34 1013.70 1014.55 1015.25 1015.88 1016.50 1017.17 1017.71 1018.33 1018.73 1019.67 1020.40 1021.13 1021.63
1005.05 1004.97 1004.81 1004.21 1004.09 1004.06 1004.27 1004.09 1004.01 1003.86 1003.14 1003.28 1003.67 1004.30 1004.89 1005.58 1006.22 1006.77 1007.38 1007.84 1008.22 1008.57 1008.94 1009.64 1010.21 1010.80 1011.63 1012.21 1012.81 1013.26 1013.83 1014.45 1015.23 1015.86 1016.60 1017.18 1017.93 1018.56 1019.28 1019.80 1020.33 1021.02 1021.22 1021.82
1005.11 1005.34 1004.98 1004.13 1003.97 1003.66 1003.59 1003.66 1003.40 1002.82 1002.67 1002.93 1003.40 1004.42 1004.99 1005.97 1006.85 1007.66 1008.38 1008.97 1009.44 1009.82 1010.18 1010.52 1010.94 1011.48 1012.15 1012.96 1013.58 1014.09 1014.62 1015.33 1016.02 1016.78 1017.49 1018.23 1018.87 1019.39 1020.02 1020.29 1020.97 1021.20 1021.73 1021.57
1005.82 1006.17 1004.58 1003.09 1003.28 1003.02 1002.96 1002.61 1002.55 1002.60 1002.38 1002.88 1003.70 1004.47 1006.16 1006.79 1007.71 1008.78 1009.45 1010.11 1010.61 1011.03 1011.29 1011.56 1012.00 1012.54 1013.08 1013.66 1014.28 1014.89 1015.54 1016.22 1016.89 1017.48 1018.16 1018.93 1019.40 1019.81 1020.54 1020.99 1021.34 1021.42 1021.66 1021.92
1005.83 1005.20 1003.76 1003.42 1003.39 1003.03 1002.61 1001.62 1001.80 1001.80 1002.14 1002.83 1004.62 1006.10 1007.36 1008.42 1008.87 1009.80 1010.59 1011.17 1011.70 1012.13 1012.38 1012.60 1012.87 1013.40 1013.90 1014.57 1015.27 1015.93 1016.55 1017.12 1017.65 1018.16 1018.58 1019.10 1019.63 1020.18 1020.51 1020.73 1021.13 1021.17 1021.69 1022.05
1005.88 1004.49 1003.06 1002.18 1001.98 1002.46 1002.56 1000.70 1001.25 1001.71 1002.15 1003.12 1005.05 1005.61 1006.16 1008.85 1010.14 1010.97 1011.46 1011.90 1012.35 1012.86 1013.25 1013.45 1013.81 1014.17 1014.64 1015.33 1016.02 1016.66 1017.24 1017.71 1018.24 1018.63 1018.94 1019.42 1019.91 1020.70 1021.20 1021.36 1021.44 1021.50 1021.35 1021.35
1004.93 1003.88 1002.33 1001.94 1002.04 1002.50 1002.10 1000.82 1001.31 1001.60 1002.23 1003.52 1004.56 1004.85 1006.36 1008.84 1010.42 1011.41 1012.05 1012.55 1012.97 1013.25 1013.63 1014.14 1014.55 1014.93 1015.39 1016.12 1016.78 1017.55 1018.14 1018.77 1019.40 1019.94 1020.37 1020.53 1020.46 1020.63 1020.78 1020.82 1021.01 1021.18 1021.36 1021.32
1004.45 1003.50 1002.14 1002.05 1002.53 1001.33 1000.26 1001.04 1001.28 1001.80 1002.38 1003.41 1004.99 1006.62 1008.02 1009.23 1010.56 1011.65 1012.38 1013.21 1013.60 1013.94 1014.42 1014.95 1015.35 1015.74 1016.47 1017.25 1018.05 1018.61 1019.18 1019.46 1019.61 1020.03 1020.36 1020.47 1020.55 1020.69 1020.85 1020.90 1021.09 1021.20 1021.24 1021.12
1002.69 1001.41 1000.63 1000.84 999.88 1000.05 1000.47 1000.61 1001.35 1001.76 1002.63 1003.74 1005.57 1007.03 1008.49 1009.57 1010.67 1011.61 1012.43 1013.14 1013.76 1014.31 1014.93 1015.55 1015.98 1016.38 1016.82 1017.78 1018.22 1018.55 1018.99 1019.48 1019.93 1020.27 1020.47 1020.66 1020.64 1020.84 1020.88 1021.10 1021.28 1021.39 1021.43 1021.31
1002.12 1000.49 1000.45 1000.39 1000.16 1000.39 1000.73 1000.93 1001.38 1001.91 1002.84 1004.42 1005.42 1007.17 1008.60 1009.86 1010.82 1011.69 1012.56 1013.26 1013.99 1014.79 1015.59 1016.31 1016.87 1017.22 1017.56 1018.05 1018.49 1018.89 1019.38 1019.85 1020.16 1020.55 1020.62 1020.97 1020.97 1021.15 1021.30 1021.76 1022.01 1022.02 1021.96 1021.81
1000.71 1000.22 1000.72 1000.39 1000.14 1000.10 1000.98 1001.61 1002.01 1002.22 1003.00 1004.11 1005.42 1006.94 1008.19 1009.53 1010.66 1011.55 1012.51 1013.61 1014.39 1015.25 1016.18 1017.04 1017.78 1018.21 1018.59 1018.94 1019.10 1019.44 1019.97 1020.41 1020.74 1021.03 1021.07 1021.08 1021.54 1022.15 1022.51 1022.81 1023.56 1023.27 1022.95 1022.82
999.60 999.60 999.80 999.37 999.63 1000.17 1000.92 1001.43 1001.97 1002.50 1003.58 1004.59 1005.53 1006.57 1008.06 1009.40 1010.55 1011.61 1012.74 1013.78 1014.84 1015.87 1016.82 1017.70 1018.43 1018.99 1019.56 1019.82 1019.83 1020.05 1020.54 1021.07 1021.51 1021.47 1021.66 1021.79 1021.98 1022.33 1023.43 1023.72 1023.95 1023.97 1024.09 1023.99
999.67 1000.18 1000.23 1000.64 1001.37 1000.51 1001.22 1001.98 1002.57 1003.19 1003.90 1004.58 1005.91 1007.20 1008.52 1009.73 1011.01 1012.14 1013.32 1014.30 1015.44 1016.60 1017.79 1018.63 1019.32 1019.90 1020.34 1020.51 1020.68 1020.87 1021.17 1021.67 1021.98 1022.12 1022.17 1022.36 1022.54 1022.72 1022.74 1022.84 1023.29 1023.60 1023.81 1023.91
1000.48 1000.85 1001.00 1000.93 1001.27 1002.01 1001.69 1002.98 1003.74 1003.99 1005.01 1005.90 1006.88 1008.13 1009.34 1010.55 1012.06 1012.93 1013.88 1014.99 1016.27 1017.38 1018.39 1019.22 1019.83 1020.28 1020.76 1021.03 1021.35 1021.71 1022.25 1022.83 1022.44 1022.52 1022.63 1022.82 1022.99 1023.10 1023.09 1023.10 1022.99 1022.98 1023.21 1023.70
1000.96 1001.28 1001.55 1001.82 1002.56 1003.21 1002.70 1003.52 1004.80 1005.30 1006.19 1007.12 1008.09 1009.11 1010.27 1011.54 1012.76 1013.89 1015.34 1016.62 1017.55 1018.35 1019.11 1019.63 1020.08 1020.72 1021.26 1021.60 1021.78 1022.03 1022.43 1022.85 1023.00 1023.22 1023.45 1023.63 1023.50 1023.38 1023.36 1023.37 1023.31 1023.14 1023.10 1023.13
1002.00 1002.21 1002.23 1002.20 1003.80 1004.81 1004.77 1005.34 1005.42 1006.93 1007.39 1008.47 1009.52 1010.37 1011.37 1012.62 1014.21 1015.70 1017.13 1018.37 1019.10 1019.87 1020.37 1021.01 1021.04 1021.40 1021.86 1022.31 1022.53 1022.83 1023.36 1024.15 1024.17 1023.77 1023.75 1023.75 1023.75 1023.70 1023.66 1023.66 1023.54 1023.40 1023.46 1023.60
1002.92 1003.30 1003.57 1003.19 1003.73 1004.88 1004.93 1006.39 1007.50 1007.81 1009.03 1010.03 1010.94 1011.90 1013.21 1014.09 1015.15 1016.74 1018.42 1019.64 1020.74 1021.88 1022.34 1022.48 1022.42 1022.42 1022.61 1022.96 1023.02 1023.26 1023.53 1024.20 1024.90 1024.49 1024.27 1024.31 1024.25 1024.21 1024.17 1024.09 1023.92 1023.80 1023.85 1024.09
1003.50 1003.55 1003.77 1003.89 1004.67 1005.55 1006.81 1006.95 1008.38 1009.16 1010.39 1011.21 1012.72 1013.47 1014.80 1016.16 1017.14 1018.28 1019.94 1020.72 1021.18 1022.17 1023.04 1023.27 1023.34 1023.40 1023.51 1023.88 1024.04 1024.20 1024.35 1024.61 1024.83 1025.00 1024.90 1024.94 1024.99 1024.74 1024.65 1024.58 1024.41 1024.21 1024.11 1024.09
1004.65 1004.81 1005.10 1005.50 1006.12 1007.33 1007.79 1008.74 1009.42 1010.45 1012.13 1012.98 1014.06 1015.02 1015.61 1016.88 1017.91 1019.28 1020.36 1021.96 1022.55 1022.62 1023.66 1024.13 1024.26 1024.29 1024.57 1024.91 1024.84 1024.86 1024.98 1025.15 1025.34 1025.44 1025.58 1025.71 1025.28 1025.18 1025.01 1024.98 1024.84 1024.68 1024.49 1024.21
1006.61 1006.84 1007.40 1008.02 1008.62 1009.70 1009.89 1010.77 1010.95 1012.25 1013.45 1014.05 1014.77 1016.16 1017.33 1018.60 1019.32 1020.09 1021.24 1022.10 1022.59 1023.36 1023.94 1024.49 1024.66 1024.89 1025.02 1025.38 1025.36 1025.28 1025.53 1025.82 1025.77 1025.82 1026.03 1025.82 1025.68 1025.57 1025.38 1025.36 1025.36 1024.92 1024.67 1024.42
1008.83 1008.99 1009.45 1010.08 1010.59 1011.23 1011.28 1011.76 1012.82 1013.90 1014.89 1015.57 1016.20 1017.22 1018.58 1019.74 1020.55 1021.36 1022.01 1022.73 1023.71 1024.04 1024.44 1024.81 1024.82 1024.98 1025.35 1025.61 1025.64 1025.85 1025.95 1025.96 1026.08 1026.02 1026.02 1025.98 1025.82 1025.60 1025.60 1025.54 1025.41 1025.20 1024.90 1024.61
1010.88 1010.86 1011.59 1012.14 1012.62 1013.05 1013.69 1014.22 1014.68 1015.49 1016.53 1017.30 1018.10 1018.87 1019.67 1020.73 1021.33 1021.88 1022.23 1022.57 1023.80 1024.35 1024.58 1024.92 1025.38 1025.77 1025.90 1026.14 1026.06 1026.17 1026.16 1026.21 1026.20 1026.22 1026.07 1026.07 1026.00 1025.90 1025.82 1025.79 1025.69 1025.53 1025.24 1024.93
1012.27 1013.06 1013.64 1013.78 1014.23 1014.98 1015.54 1016.10 1016.91 1017.54 1018.11 1018.75 1019.11 1019.80 1020.73 1021.20 1021.49 1021.90 1022.66 1023.60 1024.01 1024.65 1024.75 1025.28 1025.93 1026.31 1026.38 1026.37 1026.46 1026.48 1026.38 1026.44 1026.42 1026.36 1026.25 1026.19 1026.18 1026.13 1026.08 1026.01 1026.00 1025.94 1025.32 1025.01
1014.32 1014.87 1015.21 1015.69 1015.99 1016.42 1017.15 1018.17 1018.72 1019.20 1019.59 1020.05 1020.64 1021.26 1021.50 1021.86 1022.57 1023.10 1023.59 1024.22 1024.65 1025.01 1025.32 1025.88 1026.25 1026.63 1026.80 1026.59 1026.63 1026.56 1026.50 1026.34 1026.36 1026.28 1026.21 1026.50 1026.21 1026.18 1026.17 1026.19 1026.13 1025.92 1025.50 1025.08
1016.45 1016.78 1017.08 1017.46 1017.82 1018.46 1018.98 1019.57 1019.90 1020.33 1020.70 1021.20 1021.72 1022.19 1022.58 1022.91 1022.77 1023.70 1024.18 1024.79 1025.22 1025.44 1025.82 1026.49 1026.71 1026.89 1026.76 1026.68 1026.59 1026.60 1026.49 1026.38 1026.28 1026.30 1026.22 1026.15 1026.11 1026.12 1026.15 1026.10 1026.09 1025.77 1025.48 1025.03
1018.52 1018.88 1019.27 1019.48 1019.65 1019.96 1020.38 1020.66 1020.96 1021.45 1021.78 1022.25 1022.75 1023.04 1023.44 1023.83 1024.14 1024.51 1025.00 1025.40 1025.66 1026.09 1026.18 1026.46 1026.69 1026.83 1026.73 1026.61 1026.62 1026.59 1026.54 1026.30 1026.23 1026.19 1026.28 1026.23 1026.05 1026.05 1026.05 1026.04 1025.93 1025.55 1025.18 1024.79
1020.85 1020.98 1021.29 1021.69 1022.01 1022.19 1022.31 1022.36 1022.52 1022.87 1023.18 1023.24 1023.39 1023.80 1024.25 1024.52 1024.91 1025.20 1025.64 1025.85 1026.10 1026.35 1026.51 1026.60 1026.62 1026.73 1026.76 1026.69 1026.54 1026.42 1026.35 1026.19 1026.31 1026.46 1026.46 1026.14 1026.03 1025.97 1025.97 1025.98 1025.81 1025.51 1025.20 1024.80
Wind_Speed
15 16 15 17 15 14 16 16 13 12 14 12 12 12 8 2 3 3 4 5 5 6 7 7 8 7 7 7 7 6 6 6 6 5 5 6 5 6 6 6 8 7 11 9
11 12 13 15 16 16 18 17 13 17 17 14 13 6 7 3 3 5 6 6 7 7 8 8 8 10 9 9 8 7 7 8 8 7 8 8 8 8 9 10 9 7 9 8
14 10 9 11 14 16 15 14 16 17 16 15 10 12 9 5 6 8 10 10 10 10 9 9 10 9 11 11 10 10 10 10 9 9 10 10 10 11 10 10 8 10 7 10
5 5 10 11 3 16 18 18 17 16 17 14 11 3 4 5 10 11 11 11 10 10 10 11 12 12 12 12 12 12 11 11 10 10 11 11 10 10 9 7 6 5 5 7
5 9 9 6 7 10 12 18 15 18 17 8 5 9 7 4 7 10 10 9 9 9 11 12 13 13 14 14 13 13 12 12 11 11 11 9 9 7 6 4 3 3 4 2
4 8 10 9 13 10 4 18 9 11 14 11 13 10 7 13 11 10 10 10 11 11 12 13 12 13 14 14 14 14 13 12 11 9 8 7 6 5 3 1 3 4 6 7
10 7 6 3 10 12 10 13 3 8 10 14 15 4 19 17 13 11 10 12 12 11 12 13 13 14 15 14 14 12 11 11 10 9 7 5 4 3 2 3 4 4 6 7
7 7 10 12 11 12 11 2 6 8 10 15 10 13 17 17 15 14 14 13 12 12 12 12 12 13 15 14 11 11 11 9 8 7 5 4 4 4 4 4 5 6 6 7
10 7 4 21 14 17 7 6 7 9 11 15 16 17 17 17 17 15 15 13 13 14 14 12 12 11 14 13 11 11 10 9 8 7 5 5 5 5 4 5 5 6 6 7
3 9 12 13 15 6 11 9 6 8 14 19 19 20 18 17 16 15 14 14 14 15 14 13 11 11 12 11 10 10 9 8 6 6 4 5 3 4 4 5 5 6 7 7
7 12 4 11 15 15 10 7 7 10 17 21 20 21 20 18 18 16 15 15 14 14 13 13 12 11 10 9 8 9 8 6 6 4 5 4 4 5 4 7 7 6 7 8
7 10 9 15 6 14 14 15 13 15 17 18 19 21 21 18 16 17 17 15 14 15 15 14 12 11 9 7 7 7 7 5 4 4 4 4 4 2 11 6 5 6 9 9
8 2 6 2 6 9 14 11 12 14 15 20 17 18 19 18 17 16 17 16 16 15 15 13 12 10 8 8 7 7 7 5 5 3 3 3 3 3 4 3 4 2 5 9
5 5 5 7 5 9 10 8 9 10 11 13 16 17 17 17 18 17 17 16 16 16 14 13 11 10 8 8 8 8 8 5 4 3 3 3 3 3 3 4 5 5 5 7
8 3 2 3 4 4 12 15 13 14 14 15 16 17 17 20 18 16 16 15 15 14 13 12 12 10 8 7 7 7 5 4 4 3 4 3 3 3 3 4 5 6 6 7
4 5 6 8 6 6 7 8 13 12 13 15 15 17 18 17 17 16 14 13 11 9 10 9 10 9 7 6 6 6 7 6 3 3 2 3 3 4 4 4 5 5 6 8
4 3 4 8 13 12 12 9 9 13 14 14 15 16 17 17 18 16 15 14 13 10 8 7 8 8 7 6 5 4 4 4 3 2 3 3 3 4 4 5 5 6 6 6
2 1 5 7 11 13 11 13 13 14 13 16 15 17 17 15 14 14 13 12 12 11 8 7 7 7 7 6 5 4 4 3 2 2 2 3 4 4 4 5 6 6 7 7
6 7 7 9 10 12 13 15 15 17 16 16 15 14 15 14 14 14 14 10 9 10 8 7 7 7 7 7 4 4 4 3 1 2 3 2 2 4 4 5 6 7 7 8
13 14 14 13 13 12 14 13 16 15 13 15 16 14 15 12 12 12 10 8 6 7 8 7 6 6 6 6 3 4 3 2 2 2 3 4 3 4 5 5 6 7 7 8
13 15 16 15 14 12 13 13 14 14 13 13 14 14 13 12 11 10 10 7 8 8 8 6 4 4 4 3 1 2 1 1 2 2 3 3 4 4 5 6 7 7 8 8
11 14 15 14 14 16 14 14 15 14 13 13 13 13 13 12 10 10 8 8 7 6 4 4 4 5 4 2 2 2 2 2 3 3 3 3 4 5 5 6 7 7 8 8
15 15 15 16 16 16 16 15 14 13 13 12 12 12 9 7 6 5 6 5 6 5 4 4 6 4 3 2 2 3 4 4 4 4 4 4 4 5 5 7 7 8 8 9
16 16 16 15 15 15 17 14 14 14 13 13 12 9 7 6 6 6 8 8 8 5 4 4 3 2 3 2 3 3 4 4 4 4 5 4 5 5 6 7 8 8 8 9
16 15 15 14 14 11 13 12 12 12 12 11 10 9 8 6 4 5 5 5 6 2 3 4 2 1 3 3 3 4 5 5 5 5 5 6 6 6 7 7 8 8 9 9
16 12 12 16 12 9 8 8 8 7 6 6 6 5 6 5 6 5 4 4 4 2 2 1 2 3 3 4 5 5 5 6 6 5 6 7 7 7 7 8 8 8 8 9
15 15 12 12 11 11 10 10 8 8 7 6 5 4 4 4 4 4 3 2 2 2 2 3 3 3 4 5 5 6 5 6 5 6 8 8 7 7 7 8 8 8 8 8
Wind_Direction
244 250 248 239 232 209 215 230 243 250 263 262 275 264 280 322 279 224 173 176 170 151 131 124 124 119 114 115 119 123 125 119 115 123 125 122 130 143 143 156 139 131 134 121
228 234 232 237 237 239 225 244 249 263 267 276 280 264 247 268 201 151 127 125 121 118 112 107 109 102 104 103 101 108 99 99 101 105 103 101 99 105 107 110 117 127 120 133
238 223 226 243 232 230 226 219 232 252 269 286 265 249 242 206 169 140 125 115 105 96 93 93 95 101 99 100 102 100 99 98 101 101 100 100 103 112 104 119 117 133 164 181
224 190 226 252 225 227 232 237 233 254 268 268 273 275 174 170 153 140 128 118 110 105 100 95 95 94 98 97 97 97 97 100 104 105 105 109 111 110 120 126 147 179 198 224
180 213 261 174 182 186 200 247 237 253 267 254 176 154 159 152 137 127 119 110 104 103 103 103 100 103 104 102 103 103 101 101 104 110 108 111 114 128 150 172 212 268 5 325
173 221 230 244 195 195 191 270 255 246 257 199 169 207 171 155 145 135 128 125 121 114 110 105 103 107 106 104 102 100 101 101 101 99 101 93 82 66 74 136 200 215 240 251
212 239 242 188 159 158 204 258 170 221 230 187 196 240 132 142 143 138 130 127 125 117 109 110 114 113 106 103 96 96 94 87 82 80 93 115 118 81 25 354 322 305 291 292
207 223 239 150 146 205 229 174 208 205 202 195 156 134 141 143 143 141 135 136 129 121 114 112 113 112 108 105 106 104 104 110 100 88 84 75 57 42 10 350 325 313 313 307
212 213 189 183 219 215 202 203 196 198 182 173 153 154 153 149 148 147 145 142 137 127 120 116 119 121 116 121 124 120 110 106 103 95 78 56 32 22 357 346 338 334 323 324
184 230 230 218 223 222 205 202 190 197 179 168 161 157 156 152 150 153 151 146 137 131 124 118 112 109 111 116 119 119 113 103 94 76 58 48 40 24 12 3 352 339 332 330
237 261 276 246 235 217 201 202 190 183 176 178 161 163 160 157 158 156 150 145 144 136 129 122 117 108 107 114 125 116 107 97 90 76 54 58 53 25 29 51 15 347 350 335
226 232 222 262 281 207 208 201 186 170 173 175 171 163 163 160 159 155 151 146 142 135 130 124 116 109 105 101 109 118 111 98 63 76 63 36 36 76 117 93 24 18 16 358
246 153 231 31 296 188 209 197 186 185 181 168 167 162 161 155 156 147 149 146 142 135 126 122 118 112 106 97 100 102 104 100 109 80 67 49 28 10 344 116 140 152 10 345
201 152 236 187 246 189 157 164 158 161 161 162 155 155 151 150 143 151 148 141 135 133 128 127 125 115 110 111 110 106 103 70 85 75 61 43 26 3 349 349 332 337 357 354
206 188 355 62 128 172 146 144 154 151 149 151 152 149 148 148 149 141 132 134 133 130 133 134 124 114 109 109 104 101 94 77 74 70 64 35 14 1 356 345 336 329 333 335
174 198 142 129 129 157 140 158 149 147 147 143 146 147 146 134 129 126 123 120 124 127 116 109 114 105 105 103 104 103 97 66 33 63 60 30 12 359 354 343 334 339 333 340
177 227 191 135 153 166 149 149 146 140 136 140 139 129 129 128 119 111 97 89 87 97 105 103 96 92 91 86 91 88 82 92 30 43 37 20 1 358 348 339 331 330 330 348
293 230 174 163 153 139 146 131 136 137 135 124 118 117 118 117 113 109 104 104 107 101 98 95 96 92 85 78 70 78 73 65 51 38 15 14 358 352 347 338 329 326 326 330
58 80 93 117 130 143 134 126 118 111 118 119 116 109 108 108 111 115 118 119 121 118 113 106 103 95 88 66 70 76 72 55 42 49 1 352 339 349 342 340 330 324 324 324
79 79 79 83 87 105 105 103 106 106 109 111 106 105 103 101 106 111 123 105 84 109 122 119 107 95 93 82 37 76 60 41 15 12 26 336 350 334 338 326 320 319 321 321
72 77 77 78 80 80 85 90 98 96 95 97 104 104 107 106 99 105 114 112 118 114 108 108 88 94 79 85 55 51 32 11 347 345 336 333 322 336 331 326 323 318 318 315
76 76 75 81 81 77 75 81 83 83 81 85 91 99 101 104 101 86 59 111 117 131 107 95 82 55 69 340 18 336 320 327 322 318 321 325 328 326 327 323 317 316 312 309
72 78 77 72 75 77 69 67 71 81 88 93 97 99 107 108 106 115 116 105 120 110 96 79 97 96 85 307 326 321 314 306 303 307 312 313 311 315 317 314 317 305 306 308
72 69 71 72 73 73 75 74 79 79 82 82 83 89 101 98 82 73 87 93 103 94 68 94 111 113 284 307 300 315 303 308 296 295 303 301 297 306 304 307 301 304 302 301
70 72 71 74 77 78 85 85 84 81 84 84 82 80 71 44 63 104 98 98 105 105 101 106 132 206 278 294 305 308 306 304 314 312 304 303 301 297 298 300 300 302 307 297
64 63 61 57 59 62 64 70 72 68 77 81 73 68 71 75 89 96 89 84 84 74 16 36 299 280 295 298 310 307 307 308 301 297 306 297 293 293 293 300 301 299 302 303
56 54 60 57 50 51 52 53 61 57 44 41 72 69 71 77 76 77 70 74 48 23 352 337 310 317 324 318 303 304 304 303 312 313 310 303 297 293 299 301 301 304 302 299